Hourly Data Report for September 25, 2019

EUREKA CLIMATE
NUNAVUT
Current Station Operator: ECCC - MSC

79°59'21.000" N
85°56'02.000" W
10.00 m
2401199
71613
NEK

Download Data

Hourly Data (September 2019)
Hourly Data Report for September 25, 2019
TIME
LST
Temp Definition
°C
Dew Point Definition
°C
Rel Hum Definition
%
Precip. Amount Definition
mm

Wind Dir Definition
10's deg

Wind Spd Definition
km/h
Visibility Definition
km
Stn Press Definition
kPa
Hmdx Definition


Wind Chill Definition


Weather Definition


00:00 -7.4 -10.8 76 0.0 15 25   99.95   -15 LegendNANA
01:00 -7.3 -10.7 77 0.0 14 35   99.98   -17 LegendNANA
02:00 -7.5 -10.9 77 0.0 14 32   100.04   -17 LegendNANA
03:00 -7.5 -11.9 71 0.0 15 29   100.09   -16 LegendNANA
04:00 -7.2 -11.1 73 0.0 16 27   100.14   -15 LegendNANA
05:00 -7.9 -11.2 77 0.0 16 24   100.22   -16 LegendNANA
06:00 -7.8 -11.0 78 0.0 14 34   100.28   -17 LegendNANA
07:00 -8.2 -10.7 82 0.0 15 28   100.34   -17 LegendNANA
08:00 -8.2 -11.1 80 0.0 14 29   100.38   -17 LegendNANA
09:00 -7.8 -11.3 76 0.0 14 31   100.42   -17 LegendNANA
10:00 -7.5 -10.3 81 0.0 14 32   100.45   -17 LegendNANA
11:00 -7.1 -10.0 80 0.0 14 34   100.51   -16 LegendNANA
12:00 -6.4 -9.5 79 0.0 14 34   100.56   -15 LegendNANA
13:00 -6.4 -9.2 81 0.0 13 32   100.63   -15 LegendNANA
14:00 -6.4 -9.2 81 0.0 13 35   100.69   -15 LegendNANA
15:00 -6.5 -10.1 76 0.0 13 36   100.75   -16 LegendNANA
16:00 -6.7 -10.4 75 0.0 12 29   100.80   -15 LegendNANA
17:00 -6.7 -9.9 77 0.0 12 28   100.83   -15 LegendNANA
18:00 -6.7 -10.8 73 0.0 13 32   100.87   -15 LegendNANA
19:00 -6.7 -10.6 74 0.0 12 33   100.88   -16 LegendNANA
20:00 -6.4 -10.0 75 0.0 12 31   100.88   -15 LegendNANA
21:00 -6.9 -11.4 70 0.0 11 27   100.91   -15 LegendNANA
22:00 -7.2 -11.5 72 0.0 11 27   100.91   -15 LegendNANA
23:00 -7.5 -12.1 70 0.0 11 21   100.93   -15 LegendNANA

Notes on Data Quality.

Legend

  • E = Estimated
  • M = Missing
  • NA = Not Available*
  • [empty] = Indicates an unobserved value
Date modified: